www.pogodaiklimat.ru

Погода и климат >> Архив погоды >> Узбекистан >> Фергана


АРХИВ ПОГОДЫ в Фергане

Время (UTC), дата Ветер
(напр.,м/с)
 
Видим.   Явления Облачность Т
(С)
Тd
(С)
f
(%)
Тe
(С)
Тes
(С)
Комфортность P
(гПа)
Po
(гПа)
Тmin
(С)
Tmax
(С)
R
(мм)
R24
(мм)
S
(см)
15 15.09 штиль 0 н/о 8/0
[Ac trans Ci fib]
+19.4 +15.7 79 +21 +21 комфорт 1016.5 951.1 +25.8
18 15.09 Ю 1 н/о 8/0
[Ac trans Ci fib]
+20.4 +10.7 54 +23 +23 комфорт 1016.6 951.3 +25.8
21 15.09 штиль 0 н/о 8/0
[Ac trans Ci fib]
+16.1 +13.0 82 +16 +16 по сезону 1017.3 951.0
00 16.09 штиль 0 н/о 6/0
[Ac trans Ci fib]
+15.1 +12.0 82 +15 +15 по сезону 1018.1 951.5
03 16.09 штиль 0 50 км 3/0
[Ci fib]
+17.3 +10.6 65 +17 +21 прохладно 1018.4 952.3
06 16.09 Ю 2 50 км ясно +25.0 +8.8 36 +26 +37 жарко 1016.3 951.9 +13.0
09 16.09 З 2 10 км 1/1 1000 м
[Cu med, cong]
+27.0 +8.8 32 +27 +37 жарко 1015.2 951.3
12 16.09 З 1 10 км 9/0
[Ac trans Ci fib]
+26.2 +10.7 38 +27 +28 жарко 1015.3 951.3
15 16.09 штиль 0 н/о 10/0
[Ac trans Ci fib]
+19.5 +13.1 66 +21 +21 комфорт 1017.8 952.2 +27.5
18 16.09 ЮВ 2 н/о 10/0
[Ac trans Ci fib]
+18.1 +10.0 59 +19 +19 тепло 1018.2 952.3 +27.5
21 16.09 В 1 н/о 8/0
[Ac trans Ci fib]
+16.8 +10.2 65 +18 +18 тепло 1018.5 952.3
00 17.09 ЮВ 1 н/о 8/0
[Ac trans Ci fib]
+13.6 +12.1 91 +14 +14 по сезону 1020.2 953.2
03 17.09 ЮВ 1 50 км 1/0
[Ci fib]
+17.1 +9.7 62 +18 +21 прохладно 1020.1 953.8
06 17.09 З 1 50 км ясно +25.0 +9.8 38 +26 +40 жарко 1018.4 953.9 +13.0
09 17.09 Ю 1 10 км ясно +27.5 +10.7 35 +28 +40 жарко 1016.4 952.6
12 17.09 З 1 20 км ясно +26.2 +13.0 44 +28 +30 жарко 1015.6 951.6
15 17.09 штиль 0 н/о ясно +16.8 +14.0 84 +17 +17 холодно 1017.9 951.8 +27.6
18 17.09 В 1 н/о ясно +15.7 +10.0 69 +16 +16 по сезону 1018.1 951.6 +27.6
21 17.09 ЮВ 1 н/о ясно +14.1 +9.0 71 +15 +15 по сезону 1017.0 950.3
00 18.09 штиль 0 н/о ясно +12.1 +9.3 83 +12 +12 прохладно 1016.3 949.2 +0.9
03 18.09 ЮВ 1 50 км ясно +16.7 +9.4 62 +18 +21 по сезону 1015.6 949.5
06 18.09 СЗ 1 50 км ясно +25.9 +11.5 41 +27 +41 жарко 1012.4 948.5 +10.5
09 18.09 С 1 50 км ясно +28.9 +7.7 26 +28 +40 жарко 1009.7 946.6
12 18.09 штиль 0 50 км ясно +29.2 +14.8 42 +32 +33 душно 1008.9 946.1
15 18.09 ЮВ 1 н/о ясно +18.6 +12.9 69 +20 +20 прохладно 1012.4 947.1 +31.0
18 18.09 ЮВ 2 н/о 3/0
[Ci fib]
+17.1 +8.1 55 +17 +17 по сезону 1014.4 948.5 +31.0
21 18.09 ЮВ 1 н/о ясно +14.4 +9.3 71 +15 +15 по сезону 1015.5 949.0
00 19.09 Ю 1 н/о ясно +13.8 +7.6 66 +14 +14 по сезону 1016.7 949.9 +1.0
03 19.09 СВ 1 50 км ясно +17.8 +8.2 53 +19 +22 по сезону 1016.8 950.9
06 19.09 СВ 1 50 км 3/0
[Ac cast]
+27.9 +14.5 44 +30 +41 жарко 1014.7 951.2 +12.3
09 19.09 З 1 20 км 3/1 1000 м
[Cu hum Ac cast]
+31.1 +12.1 31 +32 +41 жарко 1012.3 949.5
12 19.09 СЗ 1 50 км ясно +30.4 +15.3 40 +33 +34 душно 1011.5 948.7
15 19.09 штиль 0 н/о ясно +19.6 +14.5 72 +21 +21 комфорт 1013.9 948.7 +32.0
18 19.09 ЮВ 1 н/о ясно +17.6 +12.6 72 +19 +19 тепло 1014.5 948.8 +32.0
21 19.09 ЮВ 1 н/о ясно +17.7 +11.4 67 +19 +19 тепло 1013.9 948.3
00 20.09 штиль 0 н/о ясно +14.8 +10.9 77 +15 +15 по сезону 1014.6 948.3
03 20.09 ЮВ 1 50 км ясно +18.5 +11.2 62 +20 +23 по сезону 1014.4 948.8
06 20.09 С 1 50 км ясно +29.1 +13.8 39 +31 +44 жарко 1011.4 948.3 +14.5
09 20.09 З 1 50 км ясно +32.0 +12.8 31 +33 +44 жарко 1010.6 948.2
12 20.09 СЗ 1 50 км ясно +30.8 +16.1 41 +34 +35 очень
душно
1008.0 945.5
15 20.09 штиль 0 н/о ясно +19.5 +16.5 83 +21 +21 комфорт 1011.0 946.1 +32.4
18 20.09 ЮВ 2 н/о ясно +19.1 +10.6 58 +21 +21 комфорт 1012.0 946.7 +32.4
21 20.09 ЮВ 2 н/о ясно +17.5 +5.3 45 +18 +18 тепло 1011.9 946.3
00 21.09 ЮВ 1 н/о ясно +17.1 +7.8 54 +18 +18 тепло 1011.7 946.0 +1.2
03 21.09 штиль 0 50 км ясно +19.5 +10.0 54 +20 +24 по сезону 1011.3 946.2
06 21.09 штиль 0 50 км ясно +29.3 +11.8 34 +30 +45 жарко 1008.7 945.8 +16.5
09 21.09 СЗ 1 10 км ясно +32.2 +12.1 29 +32 +44 жарко 1006.3 944.1
12 21.09 СЗ 1 50 км ясно +31.0 +15.0 38 +33 +35 душно 1005.2 942.9
15 21.09 Ю 1 н/о ясно +20.7 +13.0 61 +24 +24 комфорт 1008.0 943.4 +33.0
18 21.09 ЮВ 1 н/о ясно +19.1 +11.7 62 +21 +21 комфорт 1008.3 943.4 +33.0
21 21.09 ЮВ 2 н/о ясно +18.8 +9.3 54 +20 +20 тепло 1008.2 943.2
00 22.09 штиль 0 н/о ясно +14.7 +9.7 72 +14 +14 по сезону 1010.1 943.9
03 22.09 штиль 0 50 км ясно +18.6 +10.4 59 +19 +22 по сезону 1009.4 944.2
06 22.09 СЗ 1 10 км ясно +29.5 +11.7 33 +30 +43 жарко 1006.7 944.0 +14.0
09 22.09 З 1 10 км ясно +33.3 +11.9 27 +33 +45 жарко 1004.9 943.0
12 22.09 СЗ 1 10 км ясно +32.1 +15.4 37 +35 +36 очень
душно
1004.7 942.7

 

Местоположение метеостанции Фергана (Ферганская область, Узбекистан): широта 40.37 долгота 71.75 высота над уровнем моря 577 м.

В архиве по умолчанию представлена погода в Фергане за последнюю неделю. Архивные данные за месяц целиком и за предыдущие месяцы, начиная с января 2011 года, Вы можете получить, выбрав интересующий диапазон дат из раскрывающегося списка и нажав кнопку "Ввод!".


*Определитесь, кто Вы:
робот инопланетянин человек

Внимание! Время в таблицах - всемирное. Для получения местного времени необходимо прибавить поправку, которая равна 5 ч.

Смотрите также архив погоды в соседних городах и на ближайших метеорологических станциях:

Погода в Куве (Ферганская область, Узбекистан) (31 км)
Погода в Бозе (Андижанская область, Узбекистан) (37 км)
Погода в Юбилейной (Андижанская область, Узбекистан) (45 км)
Погода в Шахимардане (Ферганская область, Узбекистан) (50 км)
Погода в Андижан (Андижанская область, Узбекистан) (63 км)
Погода в Сарыканде (Андижанская область, Узбекистан) (69 км)
Погода в Намангане (Намаганская область, Узбекистан) (69 км)
Погода в Коканде (Ферганская область, Узбекистан) (71 км)
Погода в Ноокате (Ошская область, Киргизия) (75 км)
Погода в Папе (Намаганская область, Узбекистан) (78 км)

Пояснения к столбцам:

Ветер - указаны скорость ветра в м/с - средняя за 10 мин, порывы в срок и между сроками (в фигурных скобках) и направление, откуда дует ветер: С - северный, СВ - северо-восточный, В - восточный, ЮВ - юго-восточный, Ю - южный, ЮЗ - юго-западный, З - западный, СЗ - северо-западный.
Видимость - горизонтальная дальность видимости в метрах или километрах. При видимости от 1 до 10 км при отсутствии осадков обычно наблюдается дымка, при ухудшении видимости до 1 км и менее - туман. В сухую погоду видимость может ухудшаться дымом, пылью или мглою.
Явления - указаны атмосферные явления, наблюдавшиеся в срок или в последний час перед сроком; фигурными скобками обозначены явления, наблюдавшиеся между сроками (за 1-3 часа до срока); квадратными скобками обозначены град или гололедные отложения с указанием их диаметра в мм.
Облачность - указаны через наклонную черту общая и нижняя облачность в баллах и высота нижней границы облаков в метрах; квадратными скобками обозначены формы облаков: Ci - перистые, Cs - перисто-слоистые, Cc - перисто-кучевые, Ac - высококучевые, As - высокослоистые, Sc - слоисто-кучевые, Ns - слоисто-дождевые, Cu - кучевые, Cb - кучево-дождевые. Подробнее классификацию облаков см. в Атласе облаков (PDF).
T - Температура воздуха - температура, измеренная на высоте 2 м над землей.
Td - Температура точки росы - температура, при понижении до которой содержащийся в воздухе водяной пар достигнет насыщения.
f - Относительная влажность воздуха - влажноcть воздуха, измеренная на высоте 2 м над землей.
Te - Эффективная температура - температура, которую ощущает одетый по сезону человек в тени. Характеристика душности погоды. При расчете учитывается влияние влажности воздуха и скорости ветра на теплоощущения человека.
Tes - Эффективная температура на солнце - температура, которую ощущает человек, с поправкой на солнечный нагрев. Характеристика знойности погоды. Зависит от высоты солнца над горизонтом, облачности и скорости ветра. Ночью, в пасмурную погоду, а также при ветре 12 м/с и более поправка равна нулю.
P - Атмосферное давление - приведенное к уровню моря атмосферное давление.
Po - Атмосферное давление - измеренное на уровне метеостанции атмосферное давление.
Tmin - Минимальная температура - минимум температуры воздуха на высоте 2 м над землей.
Tmax - Максимальная температура - максимум температуры воздуха на высоте 2 м над землей.
R - Количество осадков - Количество выпавших осадков за период времени, мм. При наведении курсора мыши на число - период времени, за который выпало указанное количество осадков.
R24 - Количество осадков - Количество выпавших осадков за 24 часа, мм.
S - Снежный покров - Высота снежного покрова, см. При наведении курсора мыши на число - состояние снежного покрова и степень покрытия местности в баллах.